Regional Weather Roundup
Issued by NWS Spokane, WA

Home | Current Version | Previous Version | Text Only | Print | Product List | Glossary On
Versions: 1 2 3 4 5 6 7 8 9 10 11 12 13 14 15 16 17 18 19 20 21 22 23 24 25 26 27 28 29 30 31 32 33 34 35 36 37 38 39 40 41 42 43 44 45 46 47 48 49 50
715
NZUS01 KOTX 270025
RWROTX

Eastern Washington/Northern Idaho Roundup
National Weather Service, Spokane WA
500 PM PDT WED APR 26 2017

Note: "fair" indicated few or no clouds below 12,000 feet with no
significant weather and/or obstructions to visibility.

...Northeast Washington and Northern Idaho Panhandle...

CITY           SKY/WX    TMP DP  RH WIND       PRES   REMARKS
Spokane Intl   CLOUDY    52  39  61 SW20G36   29.66R
Spokane Downto CLOUDY    54  39  57 SW18G25   29.66R
Coeur d Alene  PTSUNNY   52  36  54 SW23G30   29.66S
Deer Park      CLOUDY    54  33  45 S10       29.64S
Sandpoint      PTSUNNY   46  43  87 N7        29.65R
Bonners Ferry  FAIR      48  37  66 SW3       29.64R

...Southeast Washington and southern Idaho Panhandle...

CITY           SKY/WX    TMP DP  RH WIND       PRES   REMARKS
Walla Walla    PTSUNNY   53  46  77 S10       29.78F
Pullman/Moscow CLOUDY    47  36  65 W15       29.74S
Lewiston       CLOUDY    50  40  68 W9        29.75S
Lowell           N/A     47  43  86 CALM      29.75R
Grangeville    CLOUDY    41  37  87 CALM      29.73S

...Columbia Basin...

CITY           SKY/WX    TMP DP  RH WIND       PRES   REMARKS
Ephrata        SUNNY     62  27  26 W15G24    29.66F
Moses Lake     MOSUNNY   64  28  25 W10       29.67F
Pasco          MOSUNNY   61  41  47 SW22G28   29.75F
Richland       PTCLDY    64  43  46 S14G24    29.73F
Hermiston        N/A     60  45  57 MISG      29.77F
Pendleton      LGT RAIN  53  45  74 W9        29.79R

...East Slopes Cascades...

CITY           SKY/WX    TMP DP  RH WIND       PRES   REMARKS
The Dalles     CLOUDY    55  41  59 W13G25    29.88R
Yakima         SUNNY     62  33  33 W26G37    29.73S
Ellensburg     SUNNY     55  36  48 NW26G37   29.75R
Stampede Pass  SNOW      34  34 100 SW9       29.78S VSB 1/4 WCI  27
Wenatchee      SUNNY     58  26  29 NW20      29.68R
Omak           MOSUNNY   62  24  23 W17G26    29.61R
Chelan           N/A     59  27  29 SW12        N/A
Sunnyside      MOCLDY    60  37  41 W17G26    29.74R

...Southern British Columbia...

CITY           SKY/WX    TMP DP  RH WIND       PRES   REMARKS
Penticton      PTSUNNY   61  32  33 W5G18     29.59F
Castlegar      CLOUDY    48  39  71 SW6       29.65F
Cranbrook      LGT RAIN  46  41  81 SE15      29.57S
Osoyoos          N/A     59  32  36 SW8         N/A
Creston          N/A     52  41  66 S6          N/A

...Western Montana...

CITY           SKY/WX    TMP DP  RH WIND       PRES   REMARKS
Kalispell      LGT RAIN  44  43  96 S8        29.64R
Libby            N/A     48  37  66 SE5       29.62S
Missoula       CLOUDY    51  35  54 CALM      29.64F

...Neighboring Cities...

CITY           SKY/WX    TMP DP  RH WIND       PRES   REMARKS
Seattle        PTSUNNY   54  42  64 W10       29.87R
Portland       PTSUNNY   57  40  52 NW17G23   29.95R
Boise          PTSUNNY   53  42  66 MISG      29.71F
Great Falls    CLOUDY    50  31  48 NW5       29.59R
Calgary        CLOUDY    37  32  81 SE8       29.64S



USA.gov is the U.S. government's official web portal to all federal, state and local government web resources and services.